{"data":{"norad_id":65349,"epoch":"2026-09-20T19:33:34.969248Z","epoch_age_seconds":90591,"freshness":"FRESH","line1":"1 65349U 25189AC  26263.81498807  .00016084  00000+0  52862-3 0  9990","line2":"2 65349  53.1588  18.8233 0000929  87.6750 272.4358 15.31718541 60965","mean_motion":15.31718541,"eccentricity":9.29e-5,"inclination_deg":53.1588,"raan_deg":18.8233,"arg_perigee_deg":87.675,"mean_anomaly_deg":272.4358,"bstar":0.00052862,"rev_number":6096,"period_min":94.012049959249,"perigee_km":470.04847048862,"apogee_km":471.32098156531,"semimajor_km":6848.821726027,"source":"CELESTRAK","updated_at":"2026-09-21T09:00:35.574468Z"}}